| time (UTC) | temp F | wind direction | speed MPH | gust MPH | rain 1hr in | rain 24hr in | rain mn in | humidity % | barometer mb |
| 20260507040111 | 59 | 281 | 0.0 | 2.0 | 0.00 | 0.08 | 0.00 | 93 | 1004.8 |
| 20260507034607 | 59 | 206 | 0.0 | 3.0 | 0.00 | 0.08 | 0.08 | 93 | 1004.9 |
| 20260507033103 | 58 | 223 | 0.0 | 3.0 | 0.00 | 0.08 | 0.08 | 93 | 1004.6 |
| 20260507031558 | 58 | 204 | 1.0 | 4.0 | 0.00 | 0.08 | 0.08 | 93 | 1004.6 |
| 20260507030058 | 58 | 209 | 1.0 | 4.0 | 0.00 | 0.08 | 0.08 | 93 | 1004.3 |
| 20260507024557 | 58 | 148 | 1.0 | 3.0 | 0.00 | 0.08 | 0.08 | 93 | 1004.3 |
| 20260507023056 | 58 | 210 | 0.0 | 4.0 | 0.00 | 0.08 | 0.08 | 93 | 1004.4 |
| 20260507021605 | 58 | 210 | 0.0 | 3.0 | 0.00 | 0.08 | 0.08 | 93 | 1004.3 |
| 20260507020056 | 58 | 200 | 0.0 | 3.0 | 0.00 | 0.08 | 0.08 | 93 | 1004.5 |
| 20260507014558 | 58 | 219 | 1.0 | 3.0 | 0.00 | 0.08 | 0.08 | 93 | 1004.3 |
| 20260507013053 | 58 | 212 | 0.0 | 4.0 | 0.00 | 0.08 | 0.08 | 93 | 1004.4 |
| 20260507011557 | 58 | 211 | 1.0 | 3.0 | 0.00 | 0.08 | 0.08 | 93 | 1004.7 |
| 20260507010053 | 58 | 173 | 1.0 | 4.0 | 0.00 | 0.08 | 0.08 | 93 | 1004.7 |
| 20260507004553 | 57 | 204 | 1.0 | 4.0 | 0.00 | 0.08 | 0.08 | 93 | 1004.8 |
| 20260507003052 | 57 | 167 | 1.0 | 5.0 | 0.01 | 0.08 | 0.08 | 93 | 1004.6 |
| 20260507001554 | 57 | 195 | 1.0 | 4.0 | 0.01 | 0.08 | 0.08 | 93 | 1004.5 |
| 20260507000054 | 58 | 197 | 1.0 | 3.0 | 0.02 | 0.08 | 0.08 | 93 | 1004.4 |
| 20260506234605 | 58 | 208 | 0.0 | 3.0 | 0.02 | 0.08 | 0.08 | 92 | 1004.3 |
| 20260506233048 | 58 | 217 | 0.0 | 4.0 | 0.01 | 0.07 | 0.07 | 92 | 1004.3 |
| 20260506231547 | 58 | 207 | 1.0 | 3.0 | 0.01 | 0.07 | 0.07 | 92 | 1004.2 |
| 20260506230047 | 58 | 206 | 1.0 | 3.0 | 0.00 | 0.06 | 0.06 | 92 | 1004.2 |
| 20260506224547 | 58 | 207 | 1.0 | 4.0 | 0.00 | 0.06 | 0.06 | 92 | 1004.3 |
| 20260506223048 | 59 | 214 | 1.0 | 3.0 | 0.01 | 0.06 | 0.06 | 92 | 1004.4 |
| 20260506221542 | 59 | 212 | 2.0 | 4.0 | 0.02 | 0.06 | 0.06 | 91 | 1004.5 |
| 20260506220041 | 59 | 209 | 1.0 | 4.0 | 0.02 | 0.06 | 0.06 | 91 | 1004.7 |
| 20260506214543 | 59 | 216 | 1.0 | 4.0 | 0.02 | 0.06 | 0.06 | 90 | 1004.6 |
| 20260506213038 | 60 | 207 | 1.0 | 5.0 | 0.01 | 0.05 | 0.05 | 89 | 1004.9 |
| 20260506211537 | 60 | 208 | 2.0 | 6.0 | 0.01 | 0.04 | 0.04 | 88 | 1005.0 |
| 20260506210038 | 60 | 180 | 1.0 | 4.0 | 0.01 | 0.04 | 0.04 | 88 | 1005.0 |
| 20260506204548 | 61 | 203 | 1.0 | 4.0 | 0.01 | 0.04 | 0.04 | 87 | 1005.2 |
| 20260506203033 | 61 | 189 | 1.0 | 5.0 | 0.02 | 0.04 | 0.04 | 86 | 1005.4 |
| 20260506201535 | 61 | 217 | 2.0 | 6.0 | 0.02 | 0.03 | 0.03 | 86 | 1005.4 |
| 20260506200034 | 61 | 176 | 2.0 | 7.0 | 0.03 | 0.03 | 0.03 | 85 | 1005.3 |
| 20260506194533 | 62 | 201 | 1.0 | 4.0 | 0.03 | 0.03 | 0.03 | 83 | 1005.1 |
| 20260506193028 | 62 | 176 | 2.0 | 6.0 | 0.02 | 0.02 | 0.02 | 82 | 1005.5 |
| 20260506191528 | 63 | 214 | 0.0 | 6.0 | 0.01 | 0.01 | 0.01 | 79 | 1005.5 |
| 20260506190026 | 66 | 198 | 3.0 | 10.0 | 0.00 | 0.00 | 0.00 | 71 | 1005.4 |
| 20260506184525 | 67 | 219 | 1.0 | 7.0 | 0.00 | 0.00 | 0.00 | 68 | 1005.5 |
| 20260506183023 | 68 | 217 | 3.0 | 13.0 | 0.00 | 0.00 | 0.00 | 65 | 1005.6 |
| 20260506181527 | 69 | 173 | 3.0 | 8.0 | 0.00 | 0.00 | 0.00 | 60 | 1005.6 |
| 20260506180023 | 70 | 180 | 3.0 | 6.0 | 0.00 | 0.00 | 0.00 | 58 | 1005.5 |
| 20260506174522 | 71 | 262 | 3.0 | 10.0 | 0.00 | 0.00 | 0.00 | 57 | 1005.6 |
| 20260506173021 | 72 | 181 | 4.0 | 17.0 | 0.00 | 0.00 | 0.00 | 56 | 1005.9 |
| 20260506171533 | 72 | 188 | 3.0 | 7.0 | 0.00 | 0.00 | 0.00 | 55 | 1006.0 |
| 20260506170021 | 73 | 215 | 3.0 | 10.0 | 0.00 | 0.00 | 0.00 | 56 | 1005.7 |
| 20260506164519 | 72 | 174 | 3.0 | 7.0 | 0.00 | 0.00 | 0.00 | 57 | 1006.2 |
| 20260506163014 | 72 | 94 | 3.0 | 8.0 | 0.00 | 0.00 | 0.00 | 57 | 1006.4 |
| 20260506161513 | 72 | 139 | 2.0 | 8.0 | 0.00 | 0.00 | 0.00 | 58 | 1006.5 |
| 20260506160011 | 72 | 208 | 0.0 | 5.0 | 0.00 | 0.00 | 0.00 | 60 | 1006.8 |
| 20260506154509 | 71 | 221 | 3.0 | 10.0 | 0.00 | 0.00 | 0.00 | 58 | 1007.1 |
| 20260506153007 | 72 | 190 | 3.0 | 8.0 | 0.00 | 0.00 | 0.00 | 57 | 1007.3 |
| 20260506151506 | 72 | 173 | 2.0 | 11.0 | 0.00 | 0.00 | 0.00 | 57 | 1007.4 |
| 20260506150005 | 72 | 202 | 3.0 | 8.0 | 0.00 | 0.00 | 0.00 | 58 | 1007.7 |
| 20260506144619 | 71 | 202 | 3.0 | 10.0 | 0.00 | 0.00 | 0.00 | 60 | 1007.6 |
| 20260506143103 | 70 | 169 | 2.0 | 6.0 | 0.00 | 0.00 | 0.00 | 62 | 1007.4 |
| 20260506141557 | 70 | 198 | 0.0 | 6.0 | 0.00 | 0.00 | 0.00 | 66 | 1007.4 |
| 20260506134548 | 67 | 210 | 0.0 | 6.0 | 0.00 | 0.00 | 0.00 | 71 | 1007.5 |
| 20260506133047 | 66 | 185 | 0.0 | 4.0 | 0.00 | 0.00 | 0.00 | 72 | 1008.0 |
| 20260506131541 | 65 | 212 | 2.0 | 5.0 | 0.00 | 0.00 | 0.00 | 73 | 1008.3 |
| 20260506130038 | 65 | 217 | 1.0 | 7.0 | 0.00 | 0.00 | 0.00 | 75 | 1008.0 |
| 20260506124534 | 64 | 196 | 1.0 | 5.0 | 0.00 | 0.00 | 0.00 | 76 | 1008.1 |
| 20260506123036 | 63 | 202 | 1.0 | 3.0 | 0.00 | 0.00 | 0.00 | 78 | 1008.3 |
| 20260506121532 | 61 | 203 | 1.0 | 4.0 | 0.00 | 0.00 | 0.00 | 80 | 1008.3 |
| 20260506120032 | 61 | 205 | 1.0 | 4.0 | 0.00 | 0.00 | 0.00 | 80 | 1008.3 |
| 20260506114539 | 60 | 200 | 0.0 | 4.0 | 0.00 | 0.00 | 0.00 | 81 | 1008.5 |
| 20260506113029 | 60 | 207 | 1.0 | 4.0 | 0.00 | 0.00 | 0.00 | 81 | 1008.9 |
| 20260506111527 | 60 | 210 | 1.0 | 3.0 | 0.00 | 0.00 | 0.00 | 81 | 1008.6 |
| 20260506110029 | 59 | 220 | 0.0 | 3.0 | 0.00 | 0.00 | 0.00 | 82 | 1008.5 |
| 20260506104527 | 59 | 211 | 0.0 | 3.0 | 0.00 | 0.00 | 0.00 | 82 | 1008.5 |
| 20260506103025 | 59 | 207 | 0.0 | 4.0 | 0.00 | 0.00 | 0.00 | 82 | 1008.6 |
| 20260506101543 | 59 | 214 | 0.0 | 3.0 | 0.00 | 0.00 | 0.00 | 82 | 1008.7 |
| 20260506100023 | 59 | 205 | 0.0 | 3.0 | 0.00 | 0.00 | 0.00 | 82 | 1008.5 |
| 20260506094522 | 59 | 210 | 0.0 | 3.0 | 0.00 | 0.00 | 0.00 | 82 | 1008.3 |
| 20260506093020 | 59 | 198 | 0.0 | 4.0 | 0.00 | 0.00 | 0.00 | 81 | 1008.4 |
| 20260506091522 | 59 | 211 | 0.0 | 3.0 | 0.00 | 0.00 | 0.00 | 80 | 1008.4 |
| 20260506090020 | 59 | 187 | 0.0 | 4.0 | 0.00 | 0.00 | 0.00 | 80 | 1008.4 |
| 20260506084521 | 60 | 224 | 0.0 | 3.0 | 0.00 | 0.00 | 0.00 | 79 | 1008.6 |
| 20260506083017 | 60 | 209 | 1.0 | 4.0 | 0.00 | 0.00 | 0.00 | 79 | 1008.6 |
| 20260506081516 | 60 | 193 | 2.0 | 4.0 | 0.00 | 0.00 | 0.00 | 78 | 1008.6 |
| 20260506073011 | 61 | 219 | 1.0 | 5.0 | 0.00 | 0.00 | 0.00 | 76 | 1008.4 |
| 20260506071514 | 61 | 206 | 2.0 | 5.0 | 0.00 | 0.00 | 0.00 | 75 | 1008.4 |
| 20260506061502 | 63 | 208 | 2.0 | 8.0 | 0.00 | 0.00 | 0.00 | 70 | 1008.1 |
| 20260506044600 | 63 | 205 | 1.0 | 6.0 | 0.00 | 0.00 | 0.00 | 66 | 1008.6 |
| 20260506043052 | 63 | 215 | 2.0 | 5.0 | 0.00 | 0.00 | 0.00 | 65 | 1008.6 |
| 20260506041603 | 63 | 201 | 3.0 | 7.0 | 0.00 | 0.00 | 0.00 | 65 | 1008.6 |